San Luis Obispo, CA

6:25 AM PDT on July 21, 2017 (GMT -0700)
San Luis Obispo County-McChesney

Weather History for KSBP - November, 2013

Change the Weather History Date:

Wednesday, November 6, 2013

  Actual Average Record
Temperature  
Mean Temperature 61 °F -  
Max Temperature 80 °F 72 °F 91 °F (1949)
Min Temperature 42 °F 45 °F 36 °F (1974)
Degree Days  
Heating Degree Days 4    
Growing Degree Days 11 (Base 50)    
Moisture  
Dew Point 30 °F    
Average Humidity 40    
Maximum Humidity 65    
Minimum Humidity 12    
Precipitation  
Precipitation 0.00 in - - ()
Sea Level Pressure  
Sea Level Pressure 30.17 in    
Wind  
Wind Speed 2 mph (WNW)    
Max Wind Speed 10 mph    
Max Gust Speed 17 mph    
Visibility 10 miles    
Events      
Averages and records for this station are not official NWS values.
T = Trace of Precipitation, MM = Missing Value Source: NWS Daily Summary

Daily Weather History Graph

Daily Weather History Graph

Search for Another Location

Airport or City:

Trip Planner

Search our weather history database for the weather conditions in past years. The results will help you decide how hot, cold, wet, or windy it might be!

Date:

Astronomy

Nov. 06, 2013 Rise Set
Actual Time 6:29 AM PST 5:02 PM PST
Civil Twilight 6:02 AM PST 5:29 PM PST
Nautical Twilight 5:32 AM PST 5:59 PM PST
Astronomical Twilight 5:02 AM PST 6:29 PM PST
Moon 9:45 AM PST (11/6) 8:15 PM PST (11/6)
Length of Visible Light 11h 26m
Length of Day
10h 33m
Waxing Crescent, 14% of the Moon is Illuminated
Nov 6
Waxing Crescent
Nov 9
First Quarter
Nov 17
Full
Nov 25
Last Quarter
Dec 2
New

Hourly Weather History & Observations

Time (PST) Temp. Windchill Dew Point Humidity Pressure Visibility Wind Dir Wind Speed Gust Speed Precip Events Conditions
12:56 AM 46.0 °F - 32.0 °F 58% 30.17 in 10.0 mi Calm Calm - N/A   Clear
1:56 AM 46.0 °F - 32.0 °F 58% 30.17 in 10.0 mi Calm Calm - N/A   Clear
2:56 AM 45.0 °F 43.5 °F 30.9 °F 58% 30.16 in 10.0 mi ESE 3.5 mph - N/A   Clear
3:56 AM 43.0 °F 38.8 °F 30.9 °F 62% 30.16 in 10.0 mi ESE 6.9 mph - N/A   Clear
4:56 AM 44.1 °F - 30.9 °F 60% 30.16 in 10.0 mi Calm Calm - N/A   Clear
5:56 AM 42.1 °F - 30.9 °F 65% 30.18 in 10.0 mi Calm Calm - N/A   Clear
6:56 AM 43.0 °F - 30.9 °F 62% 30.20 in 10.0 mi Calm Calm - N/A   Clear
7:56 AM 51.1 °F - 33.1 °F 50% 30.22 in 10.0 mi Calm Calm - N/A   Clear
8:56 AM 60.1 °F - 30.9 °F 33% 30.22 in 10.0 mi Calm Calm - N/A   Clear
9:56 AM 70.0 °F - 28.0 °F 21% 30.21 in 10.0 mi Calm Calm - N/A   Clear
10:56 AM 73.9 °F - 28.0 °F 18% 30.19 in 10.0 mi Calm Calm - N/A   Clear
11:56 AM 79.0 °F - 23.0 °F 13% 30.17 in 10.0 mi West 5.8 mph - N/A   Clear
12:56 PM 80.1 °F - 23.0 °F 12% 30.15 in 10.0 mi SW 8.1 mph - N/A   Clear
1:56 PM 78.1 °F - 30.0 °F 17% 30.15 in 10.0 mi NW 10.4 mph 17.3 mph N/A   Clear
2:56 PM 75.9 °F - 33.1 °F 21% 30.15 in 10.0 mi NW 9.2 mph - N/A   Clear
3:56 PM 73.0 °F - 25.0 °F 17% 30.16 in 10.0 mi West 5.8 mph - N/A   Clear
4:56 PM 64.9 °F - 34.0 °F 32% 30.17 in 10.0 mi NNW 4.6 mph - N/A   Clear
5:56 PM 63.0 °F - 34.0 °F 34% 30.18 in 10.0 mi Calm Calm - N/A   Clear
6:56 PM 57.0 °F - 33.1 °F 40% 30.18 in 10.0 mi Calm Calm - N/A   Clear
7:56 PM 54.0 °F - 32.0 °F 43% 30.17 in 10.0 mi ESE 3.5 mph - N/A   Clear
8:56 PM 52.0 °F - 30.9 °F 45% 30.17 in 10.0 mi Calm Calm - N/A   Clear
9:56 PM 50.0 °F - 30.0 °F 46% 30.17 in 10.0 mi ESE 3.5 mph - N/A   Clear
10:56 PM 48.9 °F - 30.9 °F 50% 30.16 in 10.0 mi Calm Calm - N/A   Clear
11:56 PM 48.9 °F - 32.0 °F 52% 30.16 in 10.0 mi Calm Calm - N/A   Clear